Regional Weather Roundup
Issued by NWS

Home | Current Version | Previous Version | Graphics & Text | Print | Product List | Glossary On
Versions: 1 2 3 4 5 6 7 8 9 10 11 12 13 14 15 16 17 18 19 20 21 22 23 24 25 26 27 28 29 30 31 32 33 34 35 36 37 38 39 40 41 42 43 44 45 46 47 48 49 50
000
ASUS43 KFSD 061802
RWRSD

WEATHER ROUNDUP FOR SOUTH DAKOTA
NATIONAL WEATHER SERVICE SIOUX FALLS SD
100 PM CDT FRI MAY 06 2016

NOTE: "FAIR" INDICATES FEW OR NO CLOUDS BELOW 12,000 FEET WITH NO
SIGNIFICANT WEATHER AND/OR OBSTRUCTIONS TO VISIBILITY.


SDZ001>005-009-010-012>017-061900-
NORTHWEST AND NORTH CENTRAL SOUTH DAKOTA

CITY           SKY/WX    TMP DP  RH WIND       PRES   REMARKS
BUFFALO          N/A     74  46  36 N25G31    29.97R
FAITH            N/A     76  47  35 NE29      29.92S
MOBRIDGE       SUNNY     80  50  34 N20G29    29.85R
$$

SDZ012>016-024>037-041>051-057-063-072>074-061900-
SOUTHWEST AND SOUTH CENTRAL SOUTH DAKOTA

CITY           SKY/WX    TMP DP  RH WIND       PRES   REMARKS
RAPID CTY ARPT MOSUNNY   76  51  41 N31G39    29.94R
PIERRE         MOSUNNY   81  54  39 NW8       29.84S
CUSTER         CLOUDY    77  27  15 E5G22     30.04F
PHILIP         CLOUDY    79  56  45 NW6       29.87S
PINE RIDGE     MOSUNNY   81  43  26 S15       29.92F
WINNER         FAIR      84  52  33 SW15G23   29.87F
$$

SDZ004>011-016>023-039-040-061900-
NORTHEAST SOUTH DAKOTA

CITY           SKY/WX    TMP DP  RH WIND       PRES   REMARKS
ABERDEEN       SUNNY     89  51  27 W5        29.78F
WATERTOWN      SUNNY     84  53  34 NW13G21   29.81S
BROOKINGS      SUNNY     83  53  35 W20G25    29.81F
SISSETON         N/A     89  46  22 N14       29.75F
$$

SDZ017-020-022-023-036>040-048>070-061900-
SOUTHEAST SOUTH DAKOTA

CITY           SKY/WX    TMP DP  RH WIND       PRES   REMARKS
SIOUX FALLS    MOSUNNY   80  53  39 SW14G28   29.85F
HURON          SUNNY     84  56  38 SW12      29.81F
MITCHELL       SUNNY     85  55  35 SW18      29.83F
YANKTON        SUNNY     82  52  34 SW12G17   29.87F
$$

ABBREVIATIONS USED IN REMARKS
   TC - TEMPERATURE IN CELSIUS
  WCI - WIND CHILL INDEX
   HX - HEAT INDEX
  VSB - VISIBILITY





USA.gov is the U.S. government's official web portal to all federal, state and local government web resources and services.